Concord, NH

2:19 PM EDT on May 25, 2017 (GMT -0400)
Concord Municipal

Weather History for KCON - May, 2013

Change the Weather History Date:

Wednesday, May 8, 2013

  Actual Average Record
Temperature  
Mean Temperature 62 °F 53 °F  
Max Temperature 75 °F 67 °F 93 °F (1936)
Min Temperature 49 °F 40 °F 22 °F (1968)
Degree Days  
Heating Degree Days 3 12  
Month to date heating degree days 82 105  
Since 1 July heating degree days 6584 6952  
Cooling Degree Days 0 0  
Month to date cooling degree days 0 0  
Year to date cooling degree days 0 2  
Growing Degree Days 12 (Base 50)    
Moisture  
Dew Point 57 °F    
Average Humidity 79    
Maximum Humidity 100    
Minimum Humidity 57    
Precipitation  
Precipitation 0.07 in 0.11 in 1.04 in (1994)
Month to date precipitation 0.07 0.91  
Year to date precipitation 8.76 12.91  
Snow  
Snow 0.00 in 0.00 in 1.10 in (1966)
Month to date snowfall 0.0 0.1  
Since 1 July snowfall 83.4 61.5  
Snow Depth 0.00 in    
Sea Level Pressure  
Sea Level Pressure 30.14 in    
Wind  
Wind Speed 5 mph (ESE)    
Max Wind Speed 18 mph    
Max Gust Speed 28 mph    
Visibility 10 miles    
Events Rain    
T = Trace of Precipitation, MM = Missing Value Source: NWS Daily Summary

Daily Weather History Graph

Daily Weather History Graph

Search for Another Location

Airport or City:

Trip Planner

Search our weather history database for the weather conditions in past years. The results will help you decide how hot, cold, wet, or windy it might be!

Date:

Astronomy

May. 08, 2013 Rise Set
Actual Time 5:29 AM EDT 7:55 PM EDT
Civil Twilight 4:57 AM EDT 8:27 PM EDT
Nautical Twilight 4:18 AM EDT 9:07 PM EDT
Astronomical Twilight 3:33 AM EDT 9:52 PM EDT
Moon 4:38 AM EDT (5/8) 6:49 PM EDT (5/8)
Length of Visible Light 15h 29m
Length of Day
14h 25m
Waning Crescent, 2% of the Moon is Illuminated
May 8
Waning Crescent
May 9
New
May 18
First Quarter
May 25
Full
May 31
Last Quarter

Hourly Weather History & Observations

Time (EDT) Temp. Dew Point Humidity Pressure Visibility Wind Dir Wind Speed Gust Speed Precip Events Conditions
12:51 AM 59.0 °F 54.0 °F 83% 30.16 in 10.0 mi SSE 4.6 mph - N/A   Clear
1:51 AM 55.9 °F 54.0 °F 93% 30.15 in 10.0 mi SSE 3.5 mph - N/A   Clear
2:51 AM 55.0 °F 53.1 °F 93% 30.16 in 10.0 mi Calm Calm - N/A   Clear
3:51 AM 52.0 °F 51.1 °F 97% 30.16 in 10.0 mi Calm Calm - N/A   Clear
4:51 AM 51.1 °F 50.0 °F 96% 30.17 in 9.0 mi Calm Calm - N/A   Clear
5:51 AM 50.0 °F 50.0 °F 100% 30.17 in 10.0 mi Calm Calm - N/A   Clear
6:51 AM 55.0 °F 53.1 °F 93% 30.19 in 10.0 mi Calm Calm - N/A   Clear
7:51 AM 60.1 °F 54.0 °F 80% 30.20 in 10.0 mi Calm Calm - N/A   Clear
8:51 AM 64.9 °F 55.0 °F 70% 30.22 in 10.0 mi South 4.6 mph - N/A   Clear
9:51 AM 69.1 °F 55.9 °F 63% 30.20 in 10.0 mi SE 5.8 mph - N/A   Partly Cloudy
10:51 AM 70.0 °F 55.9 °F 61% 30.20 in 10.0 mi SE 8.1 mph - N/A   Overcast
11:51 AM 70.0 °F 57.0 °F 63% 30.18 in 10.0 mi SE 8.1 mph - 0.00 in Rain Light Rain
12:51 PM 72.0 °F 59.0 °F 64% 30.16 in 10.0 mi East 10.4 mph 20.7 mph 0.00 in   Partly Cloudy
1:51 PM 72.0 °F 57.0 °F 59% 30.15 in 10.0 mi ESE 10.4 mph 20.7 mph N/A   Mostly Cloudy
2:51 PM 72.0 °F 55.0 °F 55% 30.13 in 10.0 mi SE 8.1 mph 19.6 mph 0.00 in   Overcast
3:51 PM 71.1 °F 55.9 °F 59% 30.12 in 10.0 mi East 13.8 mph 23.0 mph N/A   Mostly Cloudy
4:51 PM 69.1 °F 57.0 °F 65% 30.13 in 10.0 mi SE 11.5 mph 18.4 mph 0.00 in Rain Light Rain
5:51 PM 63.0 °F 61.0 °F 93% 30.13 in 6.0 mi ESE 12.7 mph 18.4 mph 0.01 in Rain Light Rain
6:46 PM 62.6 °F 60.8 °F 94% 30.11 in 10.0 mi ESE 6.9 mph - 0.00 in   Mostly Cloudy
6:51 PM 63.0 °F 60.1 °F 90% 30.11 in 10.0 mi ESE 4.6 mph - 0.00 in   Mostly Cloudy
7:48 PM 60.8 °F 59.0 °F 94% 30.11 in 10.0 mi ESE 8.1 mph - N/A   Overcast
7:51 PM 61.0 °F 59.0 °F 93% 30.11 in 10.0 mi East 5.8 mph - N/A   Mostly Cloudy
8:12 PM 60.8 °F 59.0 °F 94% 30.11 in 10.0 mi ESE 4.6 mph - N/A   Mostly Cloudy
8:20 PM 60.8 °F 59.0 °F 94% 30.10 in 10.0 mi ESE 3.5 mph - N/A   Mostly Cloudy
8:32 PM 60.8 °F 59.0 °F 94% 30.10 in 10.0 mi SE 3.5 mph - N/A   Mostly Cloudy
8:51 PM 60.1 °F 59.0 °F 96% 30.10 in 10.0 mi East 3.5 mph - N/A   Mostly Cloudy
9:51 PM 60.1 °F 59.0 °F 96% 30.10 in 10.0 mi ESE 8.1 mph - N/A   Overcast
10:17 PM 60.8 °F 59.0 °F 94% 30.10 in 10.0 mi Variable 3.5 mph - N/A   Overcast
10:51 PM 60.1 °F 59.0 °F 96% 30.09 in 10.0 mi Calm Calm - N/A   Overcast
10:59 PM 60.8 °F 59.0 °F 94% 30.08 in 10.0 mi East 3.5 mph - N/A   Overcast
11:28 PM 60.8 °F 59.0 °F 94% 30.07 in 10.0 mi East 6.9 mph - N/A   Overcast
11:51 PM 60.1 °F 57.9 °F 93% 30.06 in 10.0 mi ESE 5.8 mph - N/A   Overcast